Theta_e
348 342 338 338 335 329 325 325 325 327 329 329 328 328 330 331 333 334 335 335 335 334 332 331 323 319 321 321 320 323 329 332 332 334 333 333 334 333 333 332 326 322 324 328 329 329 329 329 330 331 327 319 316 315 317 323 327 329 331 332 333 334 335 335 335 335 334 334 334 334 335 335 334 334 334 334 334 334 333 332 333 333 332 332 332
348 342 338 338 335 330 325 326 325 327 327 326 326 326 326 328 331 332 333 333 333 332 333 329 321 320 321 320 321 326 331 332 333 333 331 331 331 332 333 331 327 325 327 329 331 332 332 333 332 333 332 327 322 319 317 318 321 325 329 332 333 334 335 335 334 334 334 334 334 334 334 334 334 333 333 333 333 332 332 331 331 331 329 327 326
345 341 339 337 336 332 327 325 324 325 325 323 323 321 322 324 328 330 330 330 331 332 331 325 319 320 320 320 322 329 331 331 331 330 329 329 329 332 332 331 328 327 329 331 332 332 333 332 332 333 333 333 328 323 321 319 318 318 323 329 332 333 334 334 334 334 334 334 334 334 333 333 333 333 333 332 332 331 331 330 328 327 325 323 321
344 341 339 337 337 334 327 324 323 323 322 321 319 317 317 320 323 325 327 328 330 331 327 321 319 320 321 321 325 330 329 330 330 328 328 328 329 331 331 330 329 329 331 331 331 332 332 332 332 333 333 333 329 326 325 323 320 317 317 322 328 331 332 332 333 333 333 334 335 334 334 334 333 333 333 332 331 329 329 327 324 322 320 319 318
344 341 339 337 335 332 326 323 323 321 319 317 315 315 316 317 319 322 324 327 328 326 321 319 320 320 322 323 328 330 328 329 328 326 327 327 328 330 330 329 329 330 330 330 330 331 332 332 331 332 332 331 329 328 326 324 321 318 316 317 322 328 330 330 332 333 333 334 335 334 333 334 334 332 331 330 329 325 325 324 320 316 315 317 317
343 340 338 337 333 328 325 323 322 319 317 315 314 315 315 316 317 319 322 324 323 321 319 319 320 322 324 325 328 329 327 326 324 324 325 324 325 327 328 328 328 329 329 329 331 332 332 331 331 331 331 331 331 329 325 322 320 318 318 316 318 322 327 329 330 332 332 334 334 333 334 334 333 332 330 328 326 323 323 323 320 315 317 321 320
343 339 337 335 331 326 324 321 319 317 315 315 315 315 315 317 317 318 319 320 320 318 319 320 321 326 329 329 331 330 326 323 322 323 324 322 321 324 327 326 327 327 327 329 331 331 331 330 330 331 331 332 330 327 325 321 319 319 318 317 317 318 322 326 329 329 331 334 333 333 333 333 331 331 329 327 326 323 322 320 317 316 319 322 322
342 338 337 332 329 326 323 319 316 315 315 314 315 315 316 317 317 318 317 318 318 318 319 321 324 329 331 331 332 331 328 325 324 324 324 322 320 324 326 325 325 326 328 329 330 330 330 329 330 331 332 331 328 325 323 320 318 318 318 318 317 318 321 323 325 327 330 332 332 332 332 332 331 330 329 329 327 321 320 318 315 317 320 322 322
341 338 335 331 328 326 321 316 314 315 316 316 315 315 316 317 318 317 316 316 317 318 321 323 328 332 332 331 332 333 333 332 330 329 327 323 322 325 326 325 326 327 329 329 329 329 329 329 329 331 331 329 326 323 320 320 318 318 318 318 318 319 321 322 325 328 329 330 330 331 331 331 329 328 327 327 323 319 320 322 321 321 322 322 323
341 339 336 331 328 325 320 316 314 315 317 316 314 314 315 317 317 316 315 316 318 319 321 326 330 332 331 331 332 333 335 335 333 333 331 325 323 325 325 326 326 327 328 328 328 327 328 328 329 330 330 327 324 322 320 321 319 317 317 318 319 319 322 325 328 330 330 330 329 329 329 328 328 328 327 324 320 321 322 323 323 322 322 323 323
342 339 336 331 328 325 320 315 314 314 316 315 314 314 315 317 316 315 315 316 317 320 322 326 329 329 329 330 331 332 334 334 333 334 333 329 325 324 324 325 325 326 327 327 327 326 327 327 329 330 328 326 323 322 322 322 319 316 316 317 319 320 325 328 330 330 330 330 329 329 327 326 327 327 323 320 321 323 323 322 322 322 322 322 321
342 339 337 332 327 326 319 316 315 314 315 314 314 314 315 316 316 315 315 316 317 319 321 324 326 325 324 326 329 331 333 333 333 334 334 333 329 324 323 323 324 326 326 326 326 326 327 327 330 330 328 326 324 323 322 323 320 317 315 315 318 321 326 329 329 329 330 329 329 328 327 326 326 323 321 321 322 323 321 320 319 320 321 320 319
342 339 337 331 327 323 320 321 319 314 314 314 313 313 316 317 316 315 315 316 316 318 320 322 321 318 317 319 325 329 332 333 333 334 334 334 333 328 323 321 322 325 325 325 324 325 327 328 330 329 328 327 324 323 323 323 320 318 315 315 317 321 326 328 329 329 328 328 328 327 326 326 324 322 323 324 323 324 323 320 318 318 319 320 319
341 340 336 330 327 322 320 324 320 314 315 313 314 313 315 316 315 315 315 316 316 316 318 319 317 315 316 317 321 326 331 333 333 333 333 333 333 331 326 321 320 322 323 324 324 325 327 329 330 330 329 327 324 324 324 322 320 318 316 315 317 323 327 327 327 327 327 327 327 326 326 325 323 323 324 324 323 322 322 321 321 321 320 321 320
342 340 336 329 328 325 321 321 318 315 315 313 313 312 314 316 315 315 315 315 315 315 316 316 315 316 318 319 320 323 327 331 332 331 331 332 332 332 329 322 320 321 322 324 325 325 327 329 330 330 329 327 325 324 324 323 321 318 317 315 317 324 327 326 326 327 327 327 326 325 325 325 324 324 323 323 322 321 321 322 323 322 321 320 318
344 340 334 328 330 329 321 316 315 317 318 315 313 313 314 315 315 315 315 315 314 314 314 314 316 318 320 320 320 320 323 328 331 330 329 329 330 332 330 325 322 321 323 324 325 325 327 329 330 330 329 328 325 324 324 323 321 318 317 316 317 323 327 327 326 326 327 326 326 325 324 324 323 322 321 320 321 321 321 321 322 321 319 318 314
344 340 335 329 329 328 320 316 315 318 318 314 312 313 314 315 314 315 316 315 314 313 313 314 317 320 321 321 320 320 320 324 328 328 326 326 327 331 330 327 324 323 324 324 325 325 327 329 330 330 330 328 325 324 325 324 322 319 316 316 319 324 327 326 326 326 326 325 326 326 324 323 322 320 319 320 321 319 318 317 317 316 315 316 315
344 340 336 330 329 325 321 318 315 316 315 313 316 315 313 315 315 315 316 314 313 313 313 315 317 320 321 321 321 320 320 321 324 324 324 325 326 329 329 327 326 325 324 324 325 326 328 329 330 330 330 328 326 325 325 324 323 319 317 316 319 324 326 326 326 326 326 326 326 325 324 323 321 320 321 321 318 315 314 314 315 316 316 318 318
343 341 337 332 330 326 322 318 314 314 313 315 320 321 316 313 316 315 316 314 313 312 312 315 318 320 321 322 322 321 321 321 322 324 326 327 329 329 328 328 327 327 326 326 326 326 328 330 330 330 330 328 326 326 327 326 324 321 319 318 321 324 326 327 327 326 326 326 324 323 322 321 321 319 318 318 316 316 316 317 318 319 318 319 317
343 342 338 334 332 328 323 317 314 314 313 315 318 325 322 313 315 315 316 315 312 312 312 315 318 320 322 323 324 324 324 324 325 327 328 329 330 331 329 328 328 328 328 327 327 327 329 330 330 330 330 329 327 327 328 327 325 323 322 322 324 326 327 327 327 326 325 323 322 323 322 320 318 317 316 316 317 319 319 319 318 318 316 316 316
344 343 340 336 335 331 325 317 315 314 313 314 313 322 324 318 319 317 316 317 313 311 312 314 317 320 322 325 327 327 326 328 328 328 330 331 330 329 329 328 328 328 328 327 327 328 329 330 330 330 331 330 328 328 328 328 327 324 325 326 326 327 327 328 327 327 326 323 323 323 323 321 317 317 318 317 318 317 317 316 313 314 316 316 317
345 344 341 337 336 335 329 321 319 317 315 315 313 320 324 323 326 323 317 316 314 312 312 313 316 318 322 327 329 328 329 329 328 329 331 332 330 329 329 328 328 328 328 328 328 328 329 330 330 330 331 330 329 330 329 329 327 326 327 328 328 328 328 328 327 327 326 324 322 320 321 321 318 318 319 318 317 313 314 314 311 311 313 314 315
345 345 342 338 337 337 333 327 322 320 316 315 315 318 321 324 327 324 317 318 316 311 312 313 315 317 322 328 328 327 332 331 328 329 330 332 331 329 328 327 327 326 327 328 327 328 329 330 331 330 331 331 332 331 331 329 329 329 328 329 329 328 328 327 327 327 326 323 320 318 319 320 318 319 319 318 315 312 313 314 313 311 309 310 310
346 346 343 340 339 339 337 332 327 323 319 318 318 315 319 326 328 322 318 322 320 313 311 312 314 316 320 326 327 327 331 332 328 328 329 332 332 329 328 327 327 326 328 329 328 329 330 330 331 331 332 333 333 332 332 331 330 330 329 329 329 328 328 328 327 327 326 323 320 318 318 317 316 316 316 314 311 310 312 311 311 310 309 310 309
346 345 343 341 340 340 338 334 331 327 321 322 322 315 317 327 329 325 320 320 322 319 315 315 315 313 317 323 327 326 327 329 327 327 329 333 333 331 332 331 328 327 330 331 329 329 330 331 332 333 334 333 332 332 332 331 331 331 330 330 329 329 329 328 328 326 326 324 320 319 319 318 316 315 314 313 311 310 310 310 310 310 310 311 310
343 343 342 342 340 340 338 335 331 327 323 323 324 320 319 324 328 329 325 322 326 326 319 316 315 311 314 320 325 326 326 326 324 326 330 332 333 332 334 333 329 328 332 334 333 333 334 334 335 334 334 333 332 332 331 332 331 331 330 330 330 329 329 329 329 326 326 325 321 320 320 318 317 315 315 315 314 311 310 310 309 310 311 312 310
342 342 341 341 340 339 338 335 330 327 324 325 327 326 324 325 326 324 325 327 325 323 317 314 313 312 313 315 319 324 325 325 324 325 328 330 332 332 333 331 329 330 333 335 336 337 337 336 336 334 333 333 332 331 332 332 332 332 331 331 330 330 329 329 329 327 326 326 324 322 320 318 317 315 315 315 314 312 310 309 309 308 309 310 310
343 343 341 340 340 338 337 337 332 327 325 328 331 331 329 329 327 321 320 324 320 317 315 312 313 312 313 312 314 319 322 323 323 324 324 327 328 330 330 330 331 332 332 335 337 337 337 337 336 334 333 333 332 332 332 332 332 332 331 331 330 330 330 329 330 329 327 326 325 324 323 320 318 316 315 314 314 313 311 310 309 308 307 307 306
343 343 341 341 341 338 336 337 335 331 330 333 334 333 332 333 332 324 319 317 315 316 314 312 313 313 312 312 312 314 316 318 320 321 321 323 325 326 327 327 331 332 332 334 336 337 337 337 336 335 334 333 332 332 332 331 332 332 332 331 331 331 330 330 330 330 329 328 326 325 324 323 321 320 318 316 313 312 313 311 309 307 307 307 305
340 341 342 341 342 339 335 336 336 334 335 337 336 335 335 335 334 330 323 316 312 315 315 312 313 313 313 312 312 312 313 314 316 318 318 319 320 323 323 324 327 329 331 333 334 335 336 336 337 336 334 333 333 332 332 332 332 332 332 332 332 331 331 330 330 330 329 328 327 325 324 324 324 323 322 319 314 313 314 312 309 307 307 307 306
335 338 341 341 340 339 337 336 335 335 336 337 337 336 337 336 335 333 331 322 314 314 315 314 313 313 313 313 313 312 312 312 313 315 315 315 316 318 319 322 324 325 329 331 332 333 334 335 336 336 334 334 333 332 332 332 332 332 332 332 332 332 332 331 330 329 329 328 328 326 325 325 324 324 323 321 319 318 318 314 309 306 306 306 305
335 333 336 338 336 337 339 336 335 334 335 336 337 337 337 337 335 333 334 330 321 315 313 314 314 313 313 313 313 313 313 312 311 312 313 313 314 315 316 319 323 323 325 328 329 330 331 333 334 333 332 332 331 332 332 332 333 333 332 333 332 332 332 331 330 330 329 328 328 327 326 326 325 324 323 322 322 322 322 320 316 313 309 306 304
336 333 334 336 335 335 337 337 336 336 335 336 337 339 337 337 337 334 333 332 328 321 314 313 314 314 313 313 313 313 313 312 312 312 312 312 312 313 314 315 319 321 323 325 325 325 327 328 330 332 330 329 329 330 332 332 332 333 333 333 332 332 332 332 331 330 330 329 329 328 327 327 326 324 323 323 323 322 322 323 322 321 318 311 305
338 332 332 335 336 335 335 336 337 337 336 337 339 340 338 337 337 336 334 331 329 327 320 313 313 314 314 313 313 313 313 312 312 312 311 312 311 311 312 313 315 317 321 324 324 325 326 325 328 331 329 329 330 328 332 333 331 332 332 332 332 332 332 332 332 330 330 330 329 328 328 328 327 326 325 324 324 324 324 324 323 323 322 317 309
339 334 331 334 337 336 336 336 336 337 338 338 339 339 339 338 337 337 335 331 328 328 325 318 314 312 314 314 313 313 313 313 312 312 312 312 311 312 311 311 312 314 318 322 325 328 328 326 328 331 329 331 332 330 332 334 332 333 331 331 332 333 332 332 332 331 330 330 330 329 328 328 328 327 326 326 325 324 324 324 324 323 322 320 313
339 337 334 335 337 338 338 338 339 339 338 338 338 338 338 336 336 336 336 333 328 327 327 323 318 314 312 313 313 313 313 313 313 312 312 312 312 312 311 311 311 312 314 317 322 327 328 327 327 328 330 332 333 331 333 333 333 333 330 330 331 332 332 332 332 332 331 331 331 330 329 329 328 328 327 327 327 325 325 324 324 323 323 322 318
338 339 337 337 339 339 338 338 340 340 338 337 336 337 336 333 333 334 335 335 331 330 331 327 323 319 313 312 313 313 313 313 313 312 312 312 312 312 311 312 311 311 312 312 317 323 324 324 323 322 326 331 332 332 333 333 332 333 332 331 330 329 332 333 332 332 332 331 331 331 330 329 329 328 327 328 328 327 325 325 324 324 324 324 322
337 339 338 339 340 339 338 336 337 339 339 336 332 334 335 332 332 332 333 334 333 333 333 330 327 323 318 314 312 312 312 312 312 312 312 312 312 312 311 311 311 311 311 311 313 317 318 318 320 319 321 327 331 332 333 333 333 332 332 332 330 329 331 332 332 332 332 332 332 331 331 331 329 329 328 328 328 328 326 325 325 324 324 324 324
337 338 338 339 340 340 339 336 333 334 334 335 333 333 335 333 332 332 332 333 334 334 334 332 328 324 321 319 315 312 311 311 312 312 312 312 311 312 312 311 311 311 311 311 311 313 314 314 317 319 319 324 329 332 332 333 332 330 329 330 330 331 331 331 331 332 332 331 332 331 331 331 330 330 329 328 328 328 327 327 326 325 324 324 324
337 338 336 336 339 340 340 337 333 331 329 332 334 333 334 334 332 332 332 332 334 334 333 331 328 322 319 321 320 316 313 311 311 311 311 311 311 311 311 311 312 311 311 312 311 311 312 312 314 316 318 321 325 330 331 330 331 329 327 327 329 330 330 330 331 331 331 331 332 332 331 331 331 330 330 329 329 328 328 328 326 326 325 325 324
337 337 334 333 338 339 339 337 334 332 329 330 333 334 334 334 333 332 331 331 333 334 331 328 326 321 317 320 322 320 318 314 313 313 312 312 313 313 313 313 313 313 313 313 314 315 315 313 312 312 315 317 322 327 329 330 332 331 328 326 326 327 328 329 330 330 331 331 332 331 331 332 331 331 331 330 329 329 329 328 328 327 326 325 325
336 334 334 336 339 340 338 335 333 333 331 331 334 335 334 335 335 333 331 331 333 333 330 327 325 321 318 319 320 321 321 319 318 317 317 317 317 318 318 318 317 316 317 317 318 322 322 319 314 311 312 313 320 327 327 328 333 333 332 330 329 330 329 328 328 329 330 330 331 332 332 332 332 332 332 331 330 330 329 329 328 328 327 326 326
336 335 337 339 340 340 339 335 333 333 333 335 336 336 336 336 336 333 330 331 334 333 331 328 325 322 320 320 319 320 320 319 319 320 320 320 320 320 321 320 321 321 320 320 322 325 325 323 319 315 313 312 320 329 325 325 333 334 334 333 333 333 332 331 328 326 328 329 330 332 332 331 332 333 332 331 331 331 331 330 329 329 328 327 327
339 339 339 339 339 340 339 337 335 334 334 337 338 338 338 337 335 332 330 332 333 332 330 328 325 323 321 321 320 320 320 320 320 320 320 320 320 320 321 320 320 322 324 324 326 327 327 327 325 320 318 319 325 330 324 322 330 333 335 333 333 334 333 333 332 329 330 331 330 332 331 331 332 333 333 332 332 332 332 331 330 330 330 329 328
339 339 339 339 338 338 338 339 338 338 337 337 339 339 338 337 335 333 332 333 333 332 329 327 326 324 322 323 322 321 321 321 321 321 321 321 321 320 321 320 319 321 326 328 329 330 328 329 329 324 320 321 327 333 328 323 326 330 333 334 333 333 332 332 333 333 332 332 331 332 331 331 331 332 333 334 333 333 332 332 332 331 331 330 329
339 338 338 338 337 338 337 338 340 340 339 339 339 338 338 338 336 335 335 334 334 333 331 330 329 326 325 324 324 324 323 323 323 323 322 322 322 322 321 319 318 319 325 329 331 331 330 330 330 329 326 320 323 333 333 327 326 327 330 333 334 334 333 333 332 332 333 332 332 332 332 331 330 330 331 334 334 334 333 333 332 332 332 331 331
338 339 338 337 337 337 337 338 339 339 338 338 337 336 337 338 337 336 337 336 336 335 333 333 331 328 326 326 326 325 324 324 324 323 324 325 325 324 321 317 317 320 324 328 331 332 332 332 333 333 332 327 323 330 335 333 330 329 328 331 333 333 334 335 333 332 333 333 332 332 331 330 330 330 331 332 334 335 334 334 333 333 332 332 332
335 336 337 336 337 337 337 337 337 336 336 335 334 333 335 337 337 337 337 336 336 335 335 335 333 332 330 329 328 327 326 326 326 325 325 327 327 324 318 313 317 325 328 329 331 333 334 335 335 333 333 333 329 330 335 336 334 334 332 330 331 332 333 334 334 333 333 333 333 334 332 331 331 330 328 329 332 333 334 334 334 334 333 333 333
332 332 334 334 334 335 338 337 333 332 332 332 332 333 335 336 337 337 337 337 336 335 336 335 335 335 334 334 333 333 333 331 329 329 326 326 326 321 317 316 321 328 331 333 334 336 336 336 335 334 333 333 332 333 335 336 335 335 335 333 333 333 333 334 334 334 334 333 333 334 334 334 334 331 326 327 329 330 332 333 333 334 334 334 333
329 331 333 333 333 334 336 335 332 330 330 331 331 331 333 334 335 336 337 338 338 337 337 336 335 334 334 335 333 334 337 335 332 329 327 326 325 322 322 325 329 332 334 335 336 337 337 336 335 335 335 333 333 333 333 335 335 334 335 335 336 335 335 334 334 334 334 334 334 333 333 334 335 333 329 327 327 327 330 332 332 333 334 333 333
328 329 330 332 332 332 334 333 332 333 334 334 330 328 331 332 333 334 335 338 338 338 338 338 337 334 330 330 329 330 335 337 333 330 328 328 328 327 327 329 333 334 335 335 336 337 337 336 335 335 336 335 334 334 334 334 335 335 335 334 335 336 335 335 335 335 334 334 334 334 333 332 333 333 332 329 326 326 328 329 330 331 332 333 333
Wind_Speed
20 23 22 19 17 16 16 15 15 16 15 15 15 15 15 16 16 15 14 13 12 11 11 9 10 10 11 12 13 15 17 17 17 18 17 17 17 16 16 17 18 18 18 19 19 19 19 19 18 18 19 20 21 20 17 14 13 12 13 14 14 14 15 16 17 17 18 18 18 18 17 17 16 15 16 16 15 14 14 14 13 11 11 11 9
24 25 23 20 18 16 16 16 16 16 15 15 14 15 15 15 15 15 14 13 13 12 11 10 10 10 11 12 13 15 17 17 17 17 17 17 16 16 16 17 18 18 18 18 18 18 17 17 16 16 16 18 20 20 19 16 13 12 12 13 13 14 15 16 17 18 18 18 17 17 17 16 15 15 14 13 13 12 12 12 11 9 9 9 8
26 26 23 20 18 16 17 17 16 17 16 15 15 15 15 15 15 15 15 14 13 12 11 10 10 11 11 13 14 15 17 17 17 17 17 16 15 15 16 16 17 17 17 17 16 16 16 15 14 14 15 16 17 18 18 17 15 12 11 11 12 13 14 15 16 17 17 17 17 16 16 16 15 14 13 12 11 11 10 9 8 9 9 8 8
26 26 22 21 19 17 17 18 17 17 17 17 16 15 15 15 15 15 15 14 14 13 12 11 11 11 12 13 14 16 17 17 17 17 17 16 15 15 15 16 16 16 16 15 15 15 14 14 14 14 15 17 17 17 17 17 15 13 11 10 10 11 13 14 15 16 16 17 16 16 16 15 14 13 12 11 10 9 8 8 9 9 9 8 7
27 26 22 21 19 19 19 19 18 19 18 18 16 15 15 15 16 15 15 14 14 13 13 12 12 13 14 14 15 17 16 16 17 17 16 16 16 15 15 16 16 15 15 14 14 14 14 14 15 16 16 17 17 16 16 16 15 14 12 10 10 10 11 13 14 15 16 16 14 14 14 13 12 11 10 9 10 10 9 9 10 10 9 7 6
28 26 23 22 20 20 20 20 19 20 19 18 17 16 15 16 16 16 15 15 14 14 13 13 14 14 14 14 15 17 17 17 17 16 16 16 16 15 15 15 15 15 15 14 14 14 14 15 16 17 17 17 16 16 16 15 14 14 13 11 10 10 11 12 13 13 14 15 13 13 13 11 11 11 11 10 9 10 10 11 11 11 11 10 10
27 25 24 23 22 21 21 21 20 20 19 18 18 17 16 16 17 17 16 15 15 14 14 14 15 14 14 13 15 17 17 17 17 16 16 16 16 16 16 15 15 15 15 14 15 15 15 16 16 17 18 17 17 16 16 15 14 14 13 12 11 10 10 11 11 11 14 15 13 13 12 11 10 9 10 10 10 11 12 12 9 10 12 11 12
26 26 25 24 22 22 23 23 22 20 19 19 18 17 17 17 17 17 16 16 15 14 14 15 15 14 13 13 14 16 17 16 16 16 15 16 16 17 16 16 16 15 15 15 15 16 16 16 17 17 17 17 17 17 16 15 14 14 14 13 12 11 11 11 11 11 13 14 13 12 11 10 8 8 6 7 10 12 13 14 11 12 14 12 12
27 27 26 25 22 22 23 23 23 21 19 18 17 17 17 18 17 17 16 15 14 14 15 15 16 16 14 14 14 15 15 15 16 15 15 16 17 17 17 16 16 16 15 15 16 17 17 16 17 17 17 17 18 18 17 16 15 14 14 14 13 13 11 11 13 12 12 12 12 12 13 13 10 9 7 7 10 11 13 14 11 14 15 14 13
28 27 26 24 22 22 23 23 23 21 19 18 17 17 18 18 17 17 16 15 15 15 15 16 17 17 16 15 14 14 14 14 15 15 15 17 17 17 16 16 16 16 16 16 17 17 16 16 17 17 17 18 18 18 17 17 16 15 15 15 14 13 13 14 13 13 13 13 12 11 11 11 11 10 6 9 13 15 15 13 11 14 15 14 14
28 27 26 24 22 22 22 23 22 20 20 20 19 18 18 18 17 17 16 15 15 15 15 16 17 17 17 16 15 14 13 14 15 15 15 16 17 16 16 16 16 16 16 17 17 16 16 16 17 17 18 19 19 18 17 17 17 17 16 16 15 14 17 18 13 13 14 14 14 14 11 10 12 9 7 11 14 15 13 12 12 13 13 12 12
27 26 26 24 23 23 23 23 21 20 20 20 20 19 18 18 18 17 16 15 14 15 15 16 16 16 16 16 16 15 13 13 14 14 15 15 15 15 15 15 15 15 15 15 15 15 16 16 17 17 18 19 19 18 17 17 17 17 17 16 16 15 19 17 13 13 13 14 15 15 13 12 12 11 12 14 15 15 14 13 11 11 11 12 14
27 27 27 25 24 25 24 23 21 20 19 19 19 18 18 18 18 17 16 14 14 15 16 16 15 15 15 15 15 15 14 13 14 14 14 14 14 14 14 15 15 15 15 14 13 14 15 16 16 17 18 19 19 18 18 17 17 18 17 16 15 16 18 16 13 13 14 15 14 14 14 13 13 15 16 15 15 16 15 14 14 14 13 14 16
28 28 28 26 26 26 25 23 22 21 19 19 18 18 18 18 18 17 15 15 15 16 16 16 15 15 15 15 15 15 14 14 14 14 14 13 13 13 13 14 14 13 13 13 13 13 14 15 16 17 18 19 19 19 19 18 18 18 17 16 16 18 17 13 14 15 15 14 13 14 15 14 15 16 15 13 14 14 13 16 18 17 15 15 15
27 28 29 28 27 27 25 24 22 21 19 18 17 17 18 18 18 16 15 15 16 17 16 16 16 15 15 15 15 15 14 14 14 14 14 13 12 11 13 13 13 12 12 12 12 13 14 15 16 17 18 19 19 19 20 19 19 18 18 17 17 21 18 13 14 16 14 12 13 15 14 14 16 15 13 13 14 14 15 18 18 16 14 13 13
25 27 29 29 28 28 27 25 24 21 19 18 18 17 18 18 18 16 15 15 16 17 17 16 16 16 15 14 14 14 15 14 14 14 13 12 11 11 12 13 13 12 12 11 12 13 13 14 16 17 18 19 19 20 20 20 20 19 19 18 18 21 18 13 15 15 13 13 13 14 13 13 14 13 13 15 16 15 16 17 16 13 12 10 10
24 27 30 30 29 29 28 27 26 23 20 18 18 17 18 18 17 16 15 16 17 17 17 17 16 15 15 14 14 14 14 15 14 14 12 11 10 10 11 12 13 12 11 11 12 13 13 14 15 17 18 18 19 20 20 20 20 19 19 19 20 21 16 14 16 14 13 13 12 11 12 13 13 13 14 16 14 13 13 13 12 11 11 12 13
25 29 30 31 30 29 30 29 28 25 22 21 18 18 18 18 17 16 15 16 17 18 17 17 16 15 15 14 14 14 14 15 14 13 12 11 10 10 11 12 12 12 11 12 13 13 13 14 15 17 18 19 19 19 21 20 20 19 19 19 21 20 15 15 15 13 13 13 12 11 12 13 14 15 15 15 12 11 12 12 12 14 15 15 15
25 31 31 31 31 30 30 30 28 27 25 23 21 19 19 19 18 16 16 16 18 18 18 17 16 15 15 14 14 14 14 15 14 13 11 10 10 10 10 11 12 12 12 12 13 14 14 14 16 17 17 18 19 20 21 20 20 18 18 20 22 19 15 14 14 14 13 13 13 11 11 13 13 13 14 14 13 14 15 16 15 15 15 14 14
24 30 32 31 31 31 31 31 29 28 26 24 23 21 20 19 18 17 16 17 18 19 18 18 17 16 15 15 15 14 15 15 14 13 12 11 10 10 10 11 11 11 12 13 14 14 14 15 16 16 17 18 19 20 20 20 19 17 18 21 20 16 13 12 13 14 13 13 12 10 11 12 11 12 14 14 15 15 15 15 15 14 14 14 14
24 28 32 32 32 32 32 32 30 28 26 25 23 22 20 19 19 18 17 17 18 19 19 18 17 17 16 15 14 14 14 14 14 13 12 11 10 11 10 10 11 11 12 13 15 15 15 15 16 17 18 18 19 20 19 19 18 17 20 20 16 13 12 12 12 13 13 12 11 9 11 10 9 12 14 14 15 14 13 14 13 14 14 14 14
25 27 33 34 33 32 31 32 31 29 27 26 24 22 22 21 19 18 18 18 18 19 19 19 18 17 16 15 13 13 14 14 14 13 13 11 10 11 11 10 11 11 13 14 15 15 15 15 15 16 17 17 18 19 19 18 18 19 20 16 12 12 12 12 12 12 11 10 8 9 11 10 10 13 14 13 13 11 12 13 13 13 14 14 14
27 27 32 35 34 31 30 31 31 30 28 26 24 23 23 22 20 20 19 18 18 20 20 19 18 18 17 16 14 14 14 13 15 14 13 12 11 11 11 10 11 12 13 15 16 15 15 15 15 16 16 16 15 15 16 15 16 18 16 12 10 12 12 12 12 11 10 8 8 11 12 11 11 12 13 12 11 11 12 13 13 13 13 13 12
28 28 30 32 32 30 28 30 31 30 29 27 25 24 23 21 20 20 20 19 18 19 20 20 19 18 18 17 15 14 14 13 15 15 13 13 11 11 10 10 11 12 13 15 15 15 15 14 14 15 15 14 12 13 13 13 14 13 11 10 10 11 11 12 11 10 10 9 10 13 13 12 10 10 11 10 10 11 13 12 12 12 12 12 12
24 25 28 30 31 30 30 30 31 30 30 28 26 25 23 20 19 18 20 21 19 18 20 19 19 20 19 18 16 15 14 14 16 14 13 13 12 11 11 10 10 12 13 14 14 14 14 13 13 13 12 11 12 13 14 14 14 12 11 10 10 10 10 10 10 11 10 9 11 13 12 12 11 10 10 10 11 11 12 12 12 12 12 12 12
23 22 24 26 28 30 31 31 31 31 30 29 26 26 24 21 19 17 18 20 19 18 19 19 20 21 19 18 18 16 14 13 15 14 13 12 12 12 11 10 11 13 13 12 12 12 11 10 10 10 11 11 13 13 14 14 13 13 12 10 9 9 8 9 9 11 11 9 12 13 11 11 11 10 10 10 11 11 11 11 11 11 12 12 12
26 25 24 25 27 28 27 28 31 31 30 29 27 26 25 23 20 18 18 18 19 19 20 21 21 21 20 19 18 17 15 14 14 14 14 13 12 12 11 11 11 13 13 12 11 10 9 9 9 10 11 11 12 13 13 13 13 12 11 11 10 8 8 9 9 11 11 9 11 12 11 11 10 10 10 10 10 10 9 9 10 11 10 11 11
26 25 26 28 29 30 28 27 29 31 30 28 26 25 25 24 22 20 20 19 20 20 22 23 22 22 21 20 19 17 16 15 13 13 13 13 12 12 12 11 11 12 13 12 11 10 9 9 10 10 10 11 11 12 12 13 14 12 11 11 11 9 7 8 9 9 10 9 9 10 11 11 11 11 10 10 9 8 8 8 9 10 9 9 9
21 24 25 27 28 30 33 31 28 30 31 28 25 25 25 23 21 21 21 20 20 20 22 23 22 22 21 20 19 19 17 16 15 14 13 12 11 10 10 10 10 11 13 13 11 10 10 9 10 9 9 10 10 11 11 12 13 12 12 12 11 9 7 7 9 9 8 8 7 9 12 12 12 11 11 10 9 8 8 8 8 8 8 9 9
8 17 22 25 28 28 33 33 30 30 30 28 26 26 25 22 21 21 21 20 20 20 21 22 22 21 21 20 19 19 18 17 16 15 13 12 11 10 10 10 9 9 11 11 11 11 10 9 9 8 8 8 8 9 10 10 11 12 11 12 11 9 7 7 7 8 7 6 6 9 11 11 10 10 10 10 10 10 9 9 8 7 7 8 8
6 12 16 19 23 26 29 30 31 31 29 28 28 28 26 23 22 21 20 20 21 20 20 21 22 22 21 20 20 19 18 17 16 16 15 12 11 10 10 10 9 9 9 10 10 10 10 9 8 8 8 7 7 8 8 9 10 10 10 11 10 8 7 6 6 6 7 6 5 7 10 11 10 10 10 11 11 10 10 9 9 9 8 7 7
11 13 13 14 18 22 26 27 28 31 30 29 28 27 26 24 23 21 19 20 21 20 20 21 22 23 22 21 20 19 18 17 16 16 15 14 12 11 10 10 10 10 9 10 10 9 9 8 8 7 7 6 6 7 7 8 8 8 9 9 8 8 7 6 5 5 5 6 4 4 6 9 11 11 10 10 11 11 9 9 9 9 9 8 7
14 14 14 16 19 21 24 27 27 28 30 29 27 26 25 23 22 21 20 20 21 21 21 21 22 23 22 21 20 19 18 17 16 16 15 14 13 12 11 11 10 10 9 9 9 9 9 8 7 7 6 6 4 4 6 7 7 7 7 7 8 7 6 6 5 4 4 5 4 3 3 4 7 10 11 10 11 10 10 9 8 8 8 8 8
15 15 15 17 20 20 22 26 28 28 29 30 27 24 24 23 21 20 20 21 22 22 22 22 22 22 22 22 21 19 18 17 17 16 16 15 14 13 12 12 11 10 10 9 9 9 8 7 7 6 5 5 4 3 4 5 6 6 5 6 6 6 6 5 4 4 4 4 3 3 3 3 2 5 7 9 10 9 9 9 8 7 6 7 7
16 16 16 17 19 22 24 26 28 28 29 29 27 23 21 22 20 19 20 22 23 22 23 23 23 22 22 22 21 20 19 18 17 16 16 15 15 14 13 13 12 11 11 10 10 9 8 7 6 5 5 5 4 3 3 3 4 4 3 4 4 5 6 5 3 3 3 3 3 2 3 3 2 2 2 4 7 8 7 8 9 8 7 6 6
17 16 17 19 21 23 25 26 27 26 27 27 26 23 20 20 20 18 18 20 21 21 22 24 24 24 23 22 21 21 20 19 18 17 16 16 15 15 14 14 13 12 13 11 11 10 9 8 7 6 5 4 4 3 3 2 3 3 2 2 2 3 4 4 4 3 2 2 2 2 3 3 2 3 4 1 2 4 6 6 7 7 7 6 6
15 16 17 20 23 24 25 24 25 25 26 24 23 22 20 20 19 18 18 17 18 19 19 22 24 25 24 23 22 21 21 20 19 18 17 17 16 15 15 15 14 14 14 12 12 12 11 10 8 7 6 5 5 4 4 3 2 2 1 1 1 1 2 2 3 4 3 2 2 2 2 3 3 3 4 4 2 0 3 5 6 6 5 5 6
13 15 16 19 23 24 24 23 22 23 24 23 22 21 20 19 17 18 18 16 17 17 15 16 20 24 25 24 24 22 22 21 20 20 19 18 18 17 16 16 15 16 15 14 14 14 13 13 11 10 8 7 7 6 5 4 3 3 2 1 1 0 1 2 2 3 3 3 3 3 3 3 3 4 3 4 5 3 2 2 4 4 4 4 4
13 15 17 19 21 23 23 22 20 20 21 21 20 20 19 18 17 18 17 17 18 16 13 13 15 20 25 25 25 24 23 22 21 21 20 20 20 19 18 18 17 17 16 15 16 16 16 15 14 13 12 10 9 8 7 5 5 5 3 2 2 2 2 3 3 3 3 3 4 4 4 4 4 4 4 5 5 5 4 3 2 3 1 1 3
11 13 14 18 21 21 21 22 21 20 20 20 21 20 19 18 18 19 18 17 17 14 13 14 13 19 25 26 26 25 24 23 23 22 22 21 21 20 20 20 20 19 18 18 18 18 18 18 17 17 15 14 12 10 9 7 6 6 5 4 4 4 4 4 4 5 5 5 5 5 5 5 5 5 5 5 5 5 5 5 4 3 4 5 2
12 13 13 16 20 20 20 21 22 22 22 21 21 21 20 19 18 19 18 17 16 14 14 15 15 19 24 26 26 26 25 24 24 24 24 23 22 21 21 21 21 21 20 19 18 19 19 19 20 20 18 18 15 13 12 9 7 7 6 6 5 5 6 7 7 6 6 6 6 6 6 6 6 6 6 6 7 6 5 6 5 4 6 8 6
14 16 15 16 19 20 21 21 21 22 23 22 20 20 20 18 15 17 18 16 15 15 15 16 17 20 23 24 26 26 25 25 25 25 25 24 23 21 22 22 22 22 21 19 18 19 19 19 21 21 21 20 18 16 15 11 9 9 8 6 6 7 7 8 8 7 6 6 5 5 6 6 7 8 7 7 8 8 7 7 6 5 6 7 7
14 16 15 16 18 20 23 23 21 21 21 21 19 18 18 16 13 16 18 17 16 15 15 16 19 22 22 21 24 25 25 25 25 24 24 24 23 23 22 23 22 22 20 19 19 19 17 17 18 20 21 21 18 16 17 14 11 9 9 8 7 7 8 7 8 7 5 5 5 4 4 4 7 8 8 9 9 9 8 8 8 7 7 7 8
12 16 16 17 20 22 23 24 24 21 20 19 18 17 16 13 13 15 16 15 14 15 16 17 19 22 22 21 22 23 23 23 23 23 23 24 24 23 22 24 24 22 20 18 18 17 16 15 16 18 19 19 16 16 18 16 14 11 10 9 7 7 8 7 7 7 6 7 7 6 4 3 5 7 8 9 9 9 9 9 10 9 9 9 9
11 14 15 17 20 22 21 22 23 23 20 19 18 17 14 12 13 15 15 14 14 14 16 18 20 22 22 21 22 22 22 22 23 23 23 24 24 22 21 23 24 22 19 17 17 16 16 15 15 17 18 17 16 15 16 16 16 15 13 10 8 8 8 6 7 8 7 9 9 9 8 5 4 6 7 8 8 9 9 9 11 10 11 11 11
10 11 13 15 17 19 19 18 20 20 19 18 17 15 13 13 16 17 16 15 15 15 16 17 18 19 19 20 21 22 23 23 24 24 24 24 23 21 20 22 24 23 19 17 17 16 16 17 16 16 17 17 16 15 15 15 16 17 17 15 12 10 7 6 7 7 8 10 10 11 11 8 7 7 7 7 9 9 9 9 10 10 11 12 12
7 9 12 14 15 16 16 16 18 17 14 14 13 12 14 15 16 17 16 14 14 14 16 16 16 17 17 18 19 20 23 24 25 25 24 22 20 19 19 21 22 21 18 18 18 17 17 17 17 16 16 17 17 16 16 15 14 16 18 18 17 15 12 9 9 7 8 10 11 10 10 10 9 8 7 7 8 10 9 9 10 10 11 11 12
4 8 11 13 14 14 15 16 12 7 7 6 7 11 15 15 14 14 15 14 13 13 13 12 11 12 14 16 17 18 20 21 21 22 20 18 17 17 18 20 20 18 17 18 18 17 17 17 17 16 16 16 17 17 17 16 15 15 16 17 18 18 17 14 14 12 10 11 11 11 11 10 10 9 7 6 8 9 9 8 9 10 11 11 11
3 5 8 10 12 11 13 10 3 9 4 6 9 12 15 15 14 14 14 13 12 13 12 10 9 9 10 12 14 14 14 15 15 16 16 15 16 17 18 18 18 17 17 18 18 17 16 17 18 17 17 17 16 15 16 17 17 16 15 15 14 15 16 15 15 15 14 13 13 12 12 11 10 10 8 6 7 9 10 9 8 9 11 11 11
4 4 4 4 6 6 8 5 4 5 1 8 10 11 13 14 15 15 14 12 11 12 11 10 11 11 10 9 10 10 11 12 11 11 13 13 15 16 16 16 16 17 18 18 17 16 17 18 19 18 18 18 16 15 16 16 17 17 16 15 14 13 15 15 15 15 15 16 16 14 13 12 12 12 11 10 10 10 11 10 10 9 10 11 11
3 4 3 2 2 4 4 1 3 5 7 11 14 15 14 15 15 16 15 13 13 13 12 12 13 14 14 13 12 12 13 12 10 10 12 12 13 14 15 16 17 17 18 18 17 17 17 18 19 19 19 18 17 16 16 16 16 17 16 16 16 15 16 16 15 15 16 17 17 15 14 13 13 13 13 14 13 12 12 12 12 12 11 11 11
Wind_Direction
166 170 165 160 156 152 150 148 151 153 155 154 153 153 154 157 158 160 160 159 158 155 150 145 138 130 122 121 121 118 113 114 115 113 111 107 105 105 104 101 98 99 99 96 94 95 96 93 90 87 83 81 77 75 77 79 77 74 73 74 74 77 81 81 84 85 84 83 82 81 80 80 78 78 80 80 79 77 75 72 68 64 63 59 51
166 170 163 160 158 155 153 150 152 153 156 153 153 153 154 156 157 159 159 159 159 157 153 148 141 132 125 126 125 117 115 117 117 113 110 107 107 107 106 101 99 101 99 96 95 95 93 89 86 84 85 83 79 74 73 75 75 74 72 73 74 77 82 83 85 85 82 80 78 77 78 78 77 78 76 74 76 74 69 65 61 50 42 34 23
164 167 162 161 158 159 156 153 153 153 154 152 153 152 153 153 154 156 157 158 158 159 154 149 143 134 130 131 125 118 118 119 117 114 111 109 110 110 107 103 102 103 100 98 95 94 89 84 80 81 85 84 79 73 71 73 74 77 78 76 76 79 82 83 84 82 80 77 74 74 73 73 74 74 72 71 70 65 55 46 35 21 15 5 357
163 165 162 161 160 167 160 155 153 153 153 152 152 150 150 149 151 152 154 157 158 158 152 149 143 137 135 133 125 119 120 119 117 115 114 112 113 112 110 107 106 103 101 99 95 91 87 82 78 80 85 84 78 71 69 69 70 75 83 86 82 82 82 82 82 81 78 74 72 70 66 66 68 68 66 62 51 39 29 21 11 2 355 346 343
164 163 162 161 164 169 161 156 154 153 153 151 150 150 150 147 147 149 153 156 156 154 150 149 143 139 137 133 125 122 121 119 118 116 115 115 114 113 113 112 108 105 101 97 93 89 84 80 78 81 85 83 77 71 68 68 69 73 81 90 91 88 86 84 84 84 79 73 72 67 63 64 64 59 49 40 33 24 18 11 3 4 12 21 30
164 163 162 162 164 164 161 159 155 154 152 151 151 150 150 147 146 147 152 154 153 152 151 148 142 139 135 132 127 125 124 121 120 117 115 114 114 116 116 114 110 106 102 97 92 88 83 81 79 80 81 80 75 69 67 67 68 70 78 89 95 94 91 90 89 86 79 74 71 67 65 64 59 51 40 35 31 21 11 2 4 25 53 64 61
164 163 163 163 163 163 164 162 156 154 152 152 151 150 150 149 147 148 152 152 154 154 151 147 141 134 127 129 129 127 125 123 121 116 113 111 113 116 117 115 112 108 105 99 93 89 87 83 78 76 77 75 68 65 65 66 66 69 77 88 95 96 93 91 91 86 81 77 73 73 73 66 60 57 47 37 21 8 4 6 23 52 66 72 64
165 164 166 164 162 164 165 163 157 154 153 153 151 149 151 152 150 150 152 153 156 153 148 144 135 127 124 129 130 127 125 125 121 117 113 110 112 115 117 116 114 111 106 99 95 94 90 84 77 74 73 68 62 62 64 63 63 66 76 88 96 95 92 91 93 87 82 83 80 78 76 71 68 65 49 20 6 4 19 31 52 68 67 77 74
168 168 170 166 162 164 166 163 158 155 153 155 154 151 153 155 154 153 154 153 154 149 145 142 133 130 131 132 129 126 124 124 120 116 114 112 114 116 118 117 115 111 105 99 97 96 90 81 75 72 68 63 62 63 63 61 61 66 75 87 95 94 94 90 91 89 82 85 88 84 79 73 65 62 45 18 24 38 57 61 64 68 71 83 83
173 173 173 169 162 163 167 163 159 158 158 160 159 155 156 157 157 157 155 152 152 150 147 141 138 138 137 134 130 127 125 124 121 118 115 115 117 119 120 117 116 112 106 100 97 95 88 79 73 69 66 64 63 63 60 59 61 67 75 85 92 95 93 82 79 82 79 77 77 80 81 78 71 68 44 30 55 72 83 88 81 74 76 84 84
176 176 175 172 164 164 167 165 161 161 161 161 159 157 158 158 160 159 156 154 154 152 147 141 142 143 141 137 135 132 131 129 125 122 118 116 118 121 122 120 118 113 108 103 98 93 86 79 73 69 66 64 62 61 59 59 60 66 74 83 89 92 91 83 76 75 75 76 72 69 70 78 79 71 46 48 72 83 84 88 88 84 85 85 81
176 175 175 173 166 166 167 166 165 164 163 160 159 160 159 160 163 161 159 157 155 150 143 143 145 145 144 141 137 136 136 134 129 125 121 117 115 119 122 122 119 114 111 107 99 91 86 79 74 71 67 63 61 61 61 61 60 65 71 78 86 93 95 90 82 80 78 77 76 75 74 77 79 73 67 71 80 80 78 80 80 84 91 83 76
174 174 176 173 167 168 168 168 167 167 165 162 161 161 162 163 164 163 161 157 152 147 144 146 146 145 143 141 140 139 139 137 131 126 124 120 115 116 120 121 121 116 110 107 100 91 85 79 76 73 68 64 62 63 62 62 62 64 68 74 85 90 93 94 88 85 82 79 81 83 82 80 81 83 82 84 85 82 81 75 69 77 85 81 76
172 174 176 173 170 169 170 170 168 171 169 166 165 164 165 165 166 164 160 155 150 146 146 147 144 142 138 138 140 140 140 137 132 125 123 123 119 115 114 118 121 118 111 107 100 91 85 79 77 75 70 65 64 63 63 63 64 65 68 72 83 85 82 86 87 83 84 87 90 87 84 85 88 92 94 94 92 90 87 79 76 80 84 84 84
169 174 176 174 173 171 172 172 169 172 171 169 167 166 167 165 166 163 158 154 150 146 146 146 142 140 137 137 138 140 141 138 132 124 122 122 122 117 111 112 117 119 115 110 101 92 85 78 77 75 70 66 64 63 63 63 64 65 69 71 83 92 87 83 85 86 86 88 89 86 86 91 97 102 103 100 93 92 93 91 89 90 93 95 95
169 174 177 175 175 172 173 173 171 173 173 172 169 168 167 166 165 161 158 153 150 147 146 145 142 140 137 137 137 140 140 137 133 126 123 121 123 122 112 109 113 118 116 111 102 93 85 80 78 76 70 67 64 62 63 63 64 66 69 72 83 93 95 92 90 90 90 87 86 88 90 95 104 108 102 97 94 96 100 101 101 102 103 99 96
173 175 178 178 176 174 174 174 172 173 175 173 170 169 167 166 165 161 158 153 150 147 145 144 142 141 139 138 137 138 138 136 134 130 128 125 127 124 113 110 112 116 115 110 102 96 89 83 81 77 72 69 66 64 64 64 65 66 69 76 86 90 95 95 92 92 94 94 94 96 96 98 103 103 96 95 98 101 104 106 106 101 96 92 91
175 175 181 181 177 176 175 175 174 173 173 171 169 168 168 166 164 161 158 153 151 147 146 145 143 143 139 137 136 136 136 135 135 134 133 131 132 126 116 113 113 115 113 108 104 100 92 87 84 79 76 72 70 68 66 65 65 67 72 79 85 89 93 93 92 93 92 93 97 100 100 103 103 103 100 98 100 101 101 102 97 89 88 90 92
178 178 184 183 180 179 178 178 175 174 173 170 168 167 169 168 165 162 158 155 152 149 146 145 144 144 139 139 138 136 135 134 134 133 135 134 130 127 120 116 116 114 111 108 105 101 97 92 87 83 80 76 75 72 66 66 65 67 76 78 78 82 87 89 92 93 91 93 94 95 103 108 106 107 110 104 98 96 96 95 93 91 93 96 95
182 182 185 182 180 179 179 179 176 176 175 172 168 166 169 169 166 163 159 157 154 150 147 146 146 144 144 143 140 138 136 133 134 134 134 135 133 130 124 121 118 114 111 108 105 104 101 95 91 89 85 80 78 74 68 66 66 69 77 76 75 80 87 88 91 94 97 99 96 96 106 108 100 102 108 104 99 98 98 100 101 98 99 100 97
184 183 183 180 178 178 179 179 176 177 176 174 170 165 168 168 165 163 160 158 156 153 149 148 147 147 148 144 140 140 138 135 136 134 132 133 136 132 126 123 120 115 111 109 108 107 103 99 96 93 89 86 81 76 71 68 68 73 77 76 79 85 89 89 90 92 93 94 95 103 110 102 96 102 103 101 102 103 104 106 107 100 98 99 97
185 185 183 181 179 178 178 177 176 178 177 176 173 166 167 166 164 165 162 161 158 156 152 150 149 149 149 143 144 147 141 139 138 133 132 132 133 130 125 124 120 115 112 111 111 109 106 103 98 96 95 89 81 74 70 70 71 71 74 79 87 89 88 87 86 90 90 89 94 110 117 106 102 107 106 106 108 110 108 105 105 103 101 102 100
187 186 184 182 181 176 175 176 176 179 178 177 176 170 168 165 165 169 166 163 161 160 155 153 151 150 151 147 150 155 145 141 142 139 136 133 131 129 125 124 119 116 115 115 114 112 109 104 101 99 93 85 80 77 69 68 70 68 73 84 90 90 91 87 85 90 89 85 93 107 114 109 105 107 109 112 112 113 110 105 105 105 105 107 103
187 185 182 179 179 174 172 175 177 180 178 178 180 175 170 164 166 171 167 165 165 164 160 156 155 154 156 153 153 160 153 143 143 141 134 129 128 124 121 121 119 119 120 118 116 114 110 107 104 96 88 89 93 91 82 77 78 80 84 88 90 92 96 95 92 95 92 87 94 102 107 109 107 109 113 116 114 111 110 109 108 105 106 108 105
186 184 175 173 176 175 173 175 178 179 179 179 182 178 172 167 167 171 170 170 168 168 165 161 161 158 157 158 159 162 156 147 143 139 134 132 131 126 123 126 125 125 125 123 119 115 112 109 104 97 98 106 103 98 93 85 85 92 92 88 91 93 96 99 96 97 99 92 91 98 104 104 99 101 110 113 110 106 107 111 109 108 108 106 106
193 190 172 171 177 177 177 177 178 178 180 181 181 180 177 174 172 172 172 173 171 171 169 167 164 160 158 163 165 160 154 154 151 146 143 140 139 138 136 139 136 132 132 132 127 123 121 118 113 112 113 110 104 101 96 88 85 90 93 93 93 93 94 96 93 94 99 92 87 94 100 98 93 93 102 106 106 106 107 109 110 112 112 110 110
192 194 185 185 183 180 179 179 179 179 180 180 181 183 180 180 180 178 175 176 178 175 172 170 167 164 163 165 165 161 158 160 159 155 154 153 152 149 148 147 141 138 140 142 139 137 138 133 127 121 115 109 105 101 97 97 93 90 95 95 94 95 94 95 94 93 97 97 90 92 95 97 96 92 98 103 103 105 109 113 114 115 116 116 114
189 187 186 192 188 185 183 180 181 181 181 180 183 185 183 185 187 183 181 183 184 180 176 173 172 169 168 165 163 164 164 162 161 159 160 162 161 157 156 151 145 145 144 145 145 142 141 138 131 122 117 113 108 105 102 101 96 91 92 94 95 95 93 98 99 93 90 93 95 95 95 95 92 90 93 97 100 104 113 116 114 115 119 123 121
188 180 182 189 187 187 186 183 181 181 184 185 185 184 186 190 189 187 188 190 189 187 182 177 177 175 171 169 166 165 164 164 162 160 160 162 165 164 157 147 147 153 147 145 149 145 143 141 135 128 122 115 111 111 107 103 98 93 90 90 94 95 94 96 96 97 90 88 94 92 94 95 91 91 90 87 91 103 112 114 111 114 117 123 126
188 175 183 188 186 188 189 188 186 185 185 185 187 187 191 193 190 191 194 194 194 193 188 182 181 180 177 174 171 168 165 165 165 161 160 161 165 167 160 150 150 155 150 146 147 145 143 140 137 134 128 121 116 112 109 108 104 101 96 89 92 94 92 91 93 104 103 99 94 83 87 93 90 92 93 87 89 101 110 110 111 114 112 112 115
225 189 190 187 188 192 192 190 191 192 189 186 190 194 196 195 195 196 195 197 199 197 193 190 187 186 184 180 176 173 168 168 168 164 162 163 167 169 168 162 157 156 153 150 145 143 142 140 141 138 134 131 123 114 111 110 107 107 103 94 95 96 90 92 92 97 104 109 103 84 84 87 85 86 93 94 93 99 104 102 106 110 109 108 104
201 206 201 190 193 195 194 193 193 195 195 192 195 199 199 198 201 201 197 199 202 200 199 198 194 192 190 187 183 178 174 173 173 170 167 169 174 175 176 174 167 163 160 156 152 147 144 146 146 139 134 134 129 124 115 110 111 112 107 102 102 99 95 96 90 90 104 115 113 86 79 82 79 79 86 93 92 93 96 97 106 112 107 106 110
182 197 196 193 196 193 194 195 195 199 201 200 199 201 201 201 203 204 202 202 204 203 203 204 202 199 194 192 190 185 181 178 178 178 174 176 181 182 184 184 179 175 171 165 159 151 148 149 147 145 143 137 133 128 115 110 110 115 116 110 106 102 102 99 93 91 97 112 124 113 99 90 75 73 77 84 85 86 87 85 97 117 111 104 110
184 196 190 191 197 192 191 194 197 202 205 205 202 202 203 203 204 205 204 204 205 205 206 206 208 206 200 197 195 192 189 184 184 185 183 184 187 190 191 193 193 187 182 176 170 165 159 156 151 152 155 148 149 131 118 115 105 112 118 111 112 110 107 107 97 93 97 108 124 129 138 150 112 77 71 74 82 85 84 81 83 95 95 93 99
192 204 194 189 197 193 189 192 197 201 205 205 204 204 204 204 204 205 208 208 205 206 209 208 210 212 208 204 200 196 195 192 191 191 192 192 193 197 197 199 202 197 193 188 183 183 177 171 166 171 173 167 174 160 135 135 121 121 113 106 122 116 114 124 111 96 102 110 114 126 156 174 165 157 102 67 76 86 90 89 84 80 79 79 84
196 209 208 195 195 195 191 191 195 198 203 205 206 208 206 206 207 208 211 210 204 204 210 210 210 213 213 211 207 201 198 197 197 196 199 201 201 202 203 206 206 203 204 200 194 194 195 193 188 191 191 189 201 190 172 172 146 139 109 100 126 121 130 138 129 130 118 107 133 149 169 180 174 184 185 172 65 81 92 95 90 85 83 79 76
208 214 218 205 197 197 194 193 197 199 201 203 208 211 210 208 208 211 212 211 205 200 207 211 209 212 215 216 214 209 205 202 201 200 201 206 208 209 210 213 210 209 213 209 205 204 209 213 211 212 205 202 220 222 212 209 189 183 179 132 112 117 155 160 153 159 153 144 168 188 178 170 182 197 185 186 201 147 81 98 103 94 88 84 79
221 219 223 216 203 201 198 196 201 201 200 204 208 213 215 210 206 212 213 211 209 199 203 210 207 211 216 218 219 216 214 211 207 205 205 208 213 215 218 219 216 218 219 216 217 216 219 224 225 228 223 211 215 225 226 222 224 220 213 217 221 219 201 208 208 186 173 176 188 208 205 190 200 205 200 199 196 204 230 126 122 118 103 92 91
221 225 230 226 212 205 200 199 203 204 205 210 212 210 211 211 209 214 213 212 212 203 202 208 206 211 216 221 222 220 221 221 218 214 211 213 217 219 223 224 223 225 225 223 226 227 227 229 230 232 231 224 217 220 229 232 240 239 230 234 225 227 235 235 234 223 220 220 216 216 213 222 231 221 210 216 217 209 214 227 198 156 138 80 109
225 232 236 233 225 212 202 199 204 207 208 212 215 210 209 212 213 215 216 215 214 207 206 208 209 214 217 221 223 223 224 225 226 224 220 219 221 224 227 228 228 229 231 230 232 234 234 232 230 233 234 232 228 224 227 233 246 251 246 248 240 236 239 239 240 232 233 242 240 236 235 233 234 238 229 224 237 233 218 230 229 198 243 276 251
225 220 219 226 229 220 205 200 204 210 212 213 215 210 210 212 209 213 217 217 213 208 212 214 213 218 219 221 223 224 225 225 228 229 228 225 224 227 232 234 233 232 235 236 235 234 236 233 230 232 233 234 234 228 228 228 233 238 240 247 251 257 259 253 247 236 233 238 242 245 247 241 231 235 237 230 232 238 234 235 234 203 224 264 271
216 205 210 225 233 227 214 205 204 211 214 214 214 211 212 209 204 212 215 214 212 210 215 218 219 222 223 224 226 227 226 227 228 230 232 230 228 229 233 236 236 235 237 237 235 233 233 232 231 232 232 233 232 230 231 226 221 226 225 232 243 249 262 268 259 244 231 221 225 238 244 243 235 230 232 235 233 232 235 231 232 220 215 251 264
215 214 224 231 233 230 224 218 216 218 217 215 214 215 215 205 201 213 215 212 213 214 218 221 222 225 226 228 230 232 230 230 231 232 235 235 233 231 232 236 236 235 236 235 235 235 233 230 230 231 232 231 227 230 234 226 220 225 218 220 229 230 243 257 247 234 226 212 207 216 233 241 235 233 236 239 236 231 235 231 231 232 221 230 239
219 227 232 229 229 230 229 227 228 229 225 219 214 213 213 205 203 211 215 213 214 218 222 225 227 228 230 231 234 237 235 235 235 234 236 237 236 232 230 234 234 234 237 237 237 237 235 232 230 229 229 225 219 227 237 229 223 222 218 221 220 223 235 234 220 219 219 220 225 225 224 232 235 240 244 245 244 238 236 235 236 238 233 233 233
219 227 229 229 230 229 230 231 234 236 232 228 220 210 206 202 204 208 210 211 212 220 227 229 229 230 232 234 238 241 241 239 239 237 237 237 236 232 228 231 232 232 234 238 241 244 245 242 238 232 228 222 213 221 237 236 232 228 225 225 221 227 233 216 207 223 228 223 231 235 233 241 250 252 253 249 248 245 242 239 239 240 239 242 248
223 226 230 233 234 235 236 236 235 233 228 227 218 205 202 199 202 206 204 205 210 216 225 229 229 230 234 239 244 247 245 243 242 240 239 239 237 233 228 227 228 228 231 235 241 247 249 246 243 236 230 226 218 218 233 240 241 240 236 232 234 241 233 207 205 224 239 235 235 239 238 243 249 252 255 251 247 245 246 244 241 241 239 240 247
230 232 236 240 246 246 243 244 244 238 232 227 209 196 205 203 200 204 201 201 208 213 222 230 232 232 235 238 242 245 246 246 245 243 241 238 236 234 229 225 223 225 230 235 239 244 246 243 241 238 233 232 227 221 226 237 243 245 243 240 241 243 235 225 225 232 244 243 240 240 240 241 240 241 245 248 247 245 247 249 245 241 241 240 242
244 242 243 248 254 254 253 257 255 247 242 232 205 200 209 208 201 204 205 204 206 212 218 225 227 226 229 232 233 241 250 253 249 245 243 240 236 234 228 221 219 221 228 234 238 242 245 243 241 242 239 236 235 227 222 230 237 240 244 246 245 243 241 240 242 245 251 252 247 241 241 241 237 236 240 249 251 248 252 259 251 241 242 243 242
285 258 245 249 255 256 258 256 80 69 94 166 188 205 208 209 207 207 211 210 209 212 213 214 219 218 221 228 230 234 249 258 252 248 248 246 242 236 226 219 220 223 229 236 241 242 244 245 244 246 245 241 241 235 224 225 233 237 241 247 249 246 246 247 245 244 247 253 251 242 238 237 234 237 242 249 255 254 253 259 261 249 245 244 242
327 298 261 254 260 262 263 244 92 51 197 170 186 209 213 218 219 218 217 211 210 215 212 213 223 225 224 235 243 239 241 251 253 248 246 246 246 238 226 221 223 227 232 238 243 245 244 245 246 247 247 246 246 245 236 228 231 237 238 241 245 246 246 246 244 240 240 245 250 248 242 237 238 248 259 259 255 257 252 250 257 254 246 246 244
4 331 308 319 290 273 285 183 161 229 214 185 194 204 214 226 232 233 226 212 211 218 219 219 225 231 231 233 242 246 246 248 247 238 234 236 242 240 232 227 227 229 234 238 243 246 247 247 248 247 247 248 248 249 247 240 235 237 238 238 239 241 243 244 243 241 238 240 246 249 247 244 246 252 263 264 256 255 255 252 254 253 247 246 246